International Virtual Aviation Organisation

Russian Federation and Kazakhstan MCD

 

Карточка аэропорта URRP

Внимание!
Информация на этой странице в стадии наполнения.
Если вы не увидели какой-то информации, или заметили неточность - пожалуйста сообщите нам!
Спасибо!
Команда RU-STAFF
Название аэропортаПлатов
Название аэропорта (англ.)Platov
Превышение282 ft. (86 m.)
Координаты47°29.634', 39°55.482'
Высота перехода900
Эшелон перехода050
Коды ответчика1000-1017
Зона ОрВДРостов-на-Дону РПИ (URRV)
Данные METARURRP 060700Z 01003MPS 6000 -RA BKN005 02/02 Q1012 R05/290050 NOSIG RMK QFE754/1006
Проноз погоды (TAF)URRP 060652Z 0607/0706 33006G12MPS 6000 -SHSNRA BKN004 BKN020CB TEMPO 0607/0609 0300 FG BKN002 SCT020CB BECMG 0609/0611 35009G14MPS
NOTAMshow/hide NOTAM
AWOS   TABLE

Информация о ВПП

ВПП Длина ВПП (м.) Покрытие Курс ВПП Частота ILS
053900Цементобетон46111.5
233900Цементобетон226110.9

Диспетчерские позиции

Позывной Наименование органа УВД Частота
URRP_TWRПлатов-вышка119.7
URRP_R_APPПлатов - Круг121.2
URRP_APPПлатов-подход128.2
URRP_GNDПлатов - руление119.0
URRP_DELПлатов-деливери127.1



Спутниковое изображение